Theta_e
315 317 322 320 321 321 324 330 332 334 331 327 324 326 326 326 332 329 328 327 329 327 325 332 336 336 335 337 340 338 338 341 343 340 341 338 336 338 336 334 335 327 322 326 329 332 333 334 334 334 334 331 333 335 333 331 331 332 335 334 334 333 331 332 335 336 335 333 333 332 331 330 331 332 332 332 332 332 332 331 331 331 331 331 331 333 333 333 332 333 332 331 330 330 329 328 329
316 319 323 321 323 318 324 335 334 336 335 326 324 327 324 324 329 330 331 328 329 329 330 337 338 339 337 336 337 339 339 337 336 336 337 335 338 338 335 335 332 323 320 322 325 330 333 334 334 333 332 331 334 334 332 331 330 331 332 334 334 332 330 330 334 334 334 334 333 331 331 331 331 331 331 331 331 331 331 331 331 331 331 331 331 332 333 333 332 332 332 330 330 330 329 329 329
317 320 323 321 323 322 330 335 332 332 327 324 330 331 322 325 332 330 330 328 331 333 333 335 338 338 337 340 338 340 339 335 336 337 337 337 339 338 336 334 328 320 318 319 321 329 333 334 335 333 331 332 334 334 332 331 331 331 332 333 334 334 332 332 333 332 332 332 330 329 330 330 330 331 330 330 331 330 330 330 330 331 331 331 331 331 332 332 332 332 331 331 331 329 328 328 329
318 321 321 322 327 331 338 333 334 333 322 325 329 329 327 329 332 327 326 329 331 332 330 332 339 333 339 349 339 340 339 335 337 338 339 338 339 338 335 332 326 319 318 318 319 327 331 333 335 333 332 332 334 334 332 332 331 331 330 332 333 334 333 333 333 332 331 331 330 330 330 330 330 330 330 330 331 330 331 331 331 331 331 331 330 331 332 331 331 331 331 331 331 329 328 328 328
320 321 319 323 330 333 334 328 332 329 324 331 326 329 335 330 330 327 325 327 327 327 326 334 342 333 337 343 337 342 339 337 338 337 339 337 338 337 334 331 323 319 318 317 318 324 327 330 334 334 333 332 334 333 332 332 331 330 329 331 333 331 331 332 332 331 330 330 332 332 332 331 330 330 331 331 331 330 330 330 331 331 330 330 329 331 331 331 331 331 331 331 330 330 330 329 328
320 321 320 320 322 325 329 325 327 329 332 335 327 331 332 327 330 330 326 325 325 325 330 339 342 338 339 337 335 339 335 337 338 336 338 337 339 335 333 330 322 319 319 317 317 320 324 328 333 334 334 333 333 331 332 333 332 330 329 331 331 329 331 332 329 328 329 329 330 331 332 331 330 331 332 332 332 330 329 329 329 330 330 329 329 331 331 331 331 331 331 331 330 329 329 329 328
319 320 324 323 320 324 332 327 330 337 331 326 329 331 327 328 330 329 327 325 326 328 336 339 340 344 341 335 335 335 333 336 336 337 338 338 338 334 333 328 321 320 318 317 317 320 323 327 331 333 333 333 332 331 333 332 331 330 330 331 329 329 331 332 330 330 330 330 330 331 332 331 331 331 331 331 332 331 329 329 330 331 331 330 330 331 331 331 331 330 330 330 329 328 328 328 328
321 322 327 330 326 329 333 326 330 337 323 318 327 328 326 330 328 328 329 327 326 330 337 334 336 346 338 335 340 335 333 335 337 338 337 338 336 333 333 328 322 320 319 317 316 320 323 327 331 333 332 332 332 332 332 332 332 330 330 330 330 330 331 331 331 332 332 332 331 330 331 331 331 330 329 329 330 330 329 329 330 330 330 330 330 331 331 331 330 330 329 329 328 328 328 328 328
320 322 327 329 325 329 335 327 324 327 321 321 325 325 326 327 326 328 329 327 327 331 333 330 331 339 337 340 344 335 333 336 337 338 337 338 334 333 333 329 324 321 319 317 316 319 322 327 332 333 332 331 332 333 332 332 332 331 330 330 330 330 331 332 332 332 331 331 329 329 330 330 331 330 330 330 330 330 330 330 330 330 329 330 329 330 330 330 329 328 328 328 328 328 327 327 327
321 322 326 331 329 323 326 330 329 322 318 323 325 325 326 324 324 324 327 327 327 329 329 333 336 336 339 344 342 334 334 337 337 338 338 336 333 333 333 330 326 322 320 318 317 317 319 325 331 334 332 331 332 333 333 332 332 331 330 330 329 329 330 331 330 330 329 329 328 328 330 330 331 331 330 330 330 330 330 330 329 329 329 329 329 329 329 329 329 328 328 328 328 328 327 326 326
327 327 332 335 330 320 321 332 338 331 319 322 324 324 325 322 322 321 325 325 324 329 330 337 344 339 340 343 341 334 333 337 338 338 337 336 333 332 334 332 328 324 321 319 317 316 318 322 330 333 331 331 331 332 332 332 331 331 330 329 329 329 329 329 329 328 328 328 328 329 330 330 330 330 330 329 329 329 329 329 328 329 329 329 328 328 328 328 329 327 327 327 327 327 326 326 325
324 330 343 339 328 324 327 331 337 335 323 324 325 323 323 319 320 322 325 325 326 333 332 335 341 340 343 344 339 333 333 337 337 338 337 336 334 334 335 334 330 325 322 321 318 316 317 321 328 331 331 331 331 331 332 332 331 329 330 329 329 329 328 328 328 328 328 328 328 330 331 330 330 329 329 329 329 328 327 327 327 328 328 328 328 327 327 327 327 327 326 327 326 326 326 325 324
329 333 339 329 326 328 328 327 330 330 324 326 326 321 320 318 320 322 324 325 327 332 328 329 336 342 344 342 337 332 334 336 337 338 337 336 335 336 337 335 331 327 324 322 320 317 317 320 324 328 330 331 331 331 331 332 331 328 329 329 329 328 328 328 328 328 328 328 328 329 330 330 329 328 329 329 329 329 328 327 327 327 327 327 327 327 327 327 326 325 326 326 325 325 324 324 323
328 337 336 323 324 329 329 326 324 323 325 327 323 320 319 318 321 321 323 326 325 325 323 327 335 343 342 338 338 335 335 335 336 338 337 337 336 336 337 336 332 327 325 324 321 318 317 319 322 324 328 330 329 328 329 331 330 327 328 329 328 327 327 328 327 327 327 327 328 329 329 328 328 327 328 329 329 329 328 328 328 328 328 327 327 327 327 326 325 325 325 324 324 323 323 323 323
322 339 342 330 325 326 326 323 322 324 327 326 319 320 319 316 320 322 323 325 323 320 323 327 330 334 337 342 345 336 334 334 335 337 337 338 337 337 338 336 332 328 326 325 323 320 318 318 319 321 324 327 326 324 324 327 328 326 326 327 326 325 326 327 327 326 326 327 328 328 328 327 327 326 327 328 328 328 327 327 327 326 327 327 327 327 326 325 325 325 324 324 323 322 323 323 322
329 341 337 330 325 322 323 320 321 324 325 325 317 318 320 315 318 321 319 320 322 322 330 331 324 328 333 343 344 334 333 335 335 336 337 338 338 338 337 335 331 328 327 326 325 322 320 318 318 318 320 322 322 322 320 321 323 324 325 325 325 324 325 327 326 325 323 325 327 327 326 327 326 325 325 325 326 326 325 325 325 325 326 326 326 326 324 325 325 324 324 323 322 322 322 323 322
328 335 331 329 326 323 325 321 321 324 326 324 317 318 320 317 315 317 317 322 328 329 340 335 325 330 333 334 333 332 334 333 334 336 337 338 337 336 336 333 330 329 327 326 326 324 322 319 318 318 317 318 319 320 320 319 320 321 322 323 324 324 324 325 326 324 322 323 325 325 326 326 325 325 324 324 324 324 323 323 323 323 324 324 325 324 324 324 324 324 324 324 323 322 322 323 322
323 329 328 328 329 328 328 325 321 322 323 320 319 320 321 319 317 316 320 329 334 334 341 338 333 333 330 328 330 333 334 333 335 336 337 337 337 336 335 333 331 330 328 327 328 326 324 322 321 319 318 317 317 319 319 319 319 318 318 319 322 323 323 324 324 324 322 321 322 323 323 322 323 324 324 324 324 323 322 321 321 320 320 320 320 321 322 322 323 323 323 323 323 322 321 322 322
328 330 324 329 336 331 327 326 321 319 321 320 320 321 320 320 319 317 321 329 332 335 339 339 342 340 332 330 331 333 333 334 336 336 337 337 337 336 335 334 332 331 329 328 328 328 327 325 323 322 320 318 317 318 318 318 318 318 317 317 318 319 320 320 321 322 321 320 320 320 320 319 320 322 323 323 323 323 322 321 320 319 318 318 317 318 319 320 320 320 320 320 321 321 321 322 322
326 323 321 333 335 329 327 323 320 319 319 320 319 319 318 319 318 317 322 328 328 332 340 341 346 345 337 333 331 332 333 334 336 335 336 336 337 336 335 335 333 333 331 330 330 330 330 328 326 325 323 321 319 318 318 318 318 318 317 317 317 317 317 316 317 317 318 319 319 319 319 318 318 318 319 319 321 322 322 321 320 319 318 317 317 317 317 318 319 319 320 320 320 321 321 321 322
318 318 323 329 324 322 324 319 319 318 317 318 319 318 317 317 316 317 324 327 326 326 332 340 345 341 335 333 330 332 332 332 334 335 336 336 337 336 336 335 334 334 333 332 332 331 331 330 329 327 326 324 322 321 320 320 319 318 318 317 317 316 316 315 314 315 315 317 319 319 318 319 319 319 318 316 317 319 320 321 320 319 318 318 317 317 317 319 320 320 321 321 321 320 320 321 322
315 318 322 322 318 316 318 318 317 317 317 318 318 319 318 316 314 319 325 324 324 322 325 334 338 333 332 332 331 331 331 331 332 334 335 335 336 336 336 335 335 334 334 333 333 332 332 332 331 330 328 327 326 325 324 322 321 320 319 318 317 317 316 315 314 316 316 316 318 320 320 321 322 322 321 318 316 315 316 316 317 317 317 317 317 317 317 319 320 321 321 321 321 321 321 321 321
316 319 320 320 317 314 317 317 314 315 318 319 318 319 317 316 315 318 322 320 320 318 322 334 332 329 331 331 331 332 332 331 331 333 334 335 335 336 336 335 335 334 335 335 334 333 333 333 333 332 331 330 329 328 326 325 323 322 321 320 319 318 317 317 315 316 319 320 320 321 322 323 323 324 323 322 319 316 313 313 313 313 314 315 317 317 316 318 319 319 320 320 320 321 321 321 321
315 317 318 316 314 314 317 316 316 316 317 318 318 318 317 318 317 316 319 320 318 314 318 328 329 329 331 331 332 332 331 331 332 332 334 335 335 335 335 335 335 335 336 336 336 334 334 335 334 333 332 332 331 330 329 327 326 325 323 322 322 320 319 319 317 317 320 323 323 323 323 323 323 324 324 323 321 318 315 314 314 312 312 314 315 317 317 316 317 317 319 319 319 319 320 321 321
313 314 312 311 312 313 316 316 317 316 315 317 316 318 318 315 314 315 318 318 317 317 321 328 329 330 331 332 333 331 331 331 332 332 333 334 334 334 334 334 335 335 336 336 336 336 335 335 336 336 334 333 333 332 332 330 328 327 326 326 325 324 322 321 320 318 319 322 324 324 324 324 324 324 325 325 323 321 317 316 318 316 315 316 316 317 317 317 317 317 318 318 318 318 318 319 319
310 309 310 309 310 310 313 314 315 316 315 316 317 317 316 313 312 316 318 316 318 325 331 333 330 332 332 333 332 330 330 330 331 332 332 333 334 334 334 334 335 335 336 336 336 336 336 336 336 337 336 335 334 334 334 333 332 330 329 329 329 327 326 324 321 321 320 321 323 324 325 325 325 324 325 326 325 323 319 316 320 321 319 319 318 318 319 318 318 317 317 317 317 317 317 318 318
309 308 310 309 311 311 313 314 314 316 315 315 317 316 315 313 313 317 317 318 323 332 336 333 331 333 332 332 332 330 330 330 331 332 331 332 332 333 333 334 334 335 336 336 336 336 335 336 336 336 337 337 336 335 335 335 335 333 332 331 331 330 328 326 324 323 323 322 323 324 325 325 326 326 326 327 325 323 322 318 320 323 322 321 321 321 321 321 320 320 318 317 316 315 316 317 317
311 310 310 310 312 313 313 314 314 315 313 314 316 315 315 313 314 318 316 318 328 338 337 332 333 333 331 333 332 330 330 330 331 331 331 331 331 332 332 334 334 335 335 336 336 336 336 336 336 336 337 337 337 336 335 335 336 335 334 332 332 331 330 329 326 325 325 324 324 324 324 325 325 326 326 327 324 322 324 323 323 324 323 323 323 323 323 323 323 322 321 319 318 316 314 314 315
313 310 310 311 312 314 314 314 315 315 313 315 316 315 316 314 315 317 313 319 331 338 336 332 332 332 331 332 331 330 330 330 331 330 331 331 332 332 332 333 334 335 335 335 336 335 336 336 336 336 336 337 337 336 336 335 336 336 335 333 333 332 331 331 329 328 328 326 326 325 325 325 325 327 327 327 325 323 324 326 325 325 325 324 323 323 323 323 323 323 322 321 320 319 316 314 315
314 311 309 311 313 316 316 313 314 314 314 315 315 317 320 317 316 314 314 322 334 337 335 332 332 332 331 331 331 331 329 329 330 330 331 331 331 332 332 333 333 334 335 335 335 335 336 336 336 336 336 337 337 337 336 335 336 336 336 334 333 333 333 332 331 330 330 328 328 327 327 327 327 328 328 328 326 325 326 326 326 326 326 326 325 324 324 324 323 323 322 322 322 320 319 318 317
314 312 311 313 315 321 320 314 314 314 313 314 313 315 320 316 316 314 314 324 332 335 336 331 331 332 330 331 330 330 330 329 330 330 331 331 331 332 332 332 332 333 334 334 335 335 335 335 336 336 336 337 336 337 336 336 336 336 336 335 334 334 333 333 333 332 331 330 329 328 328 328 328 329 329 328 327 326 326 326 326 326 326 326 326 325 325 325 324 324 323 323 323 322 322 322 321
316 315 317 316 315 321 323 316 314 315 312 312 312 315 316 315 316 314 312 322 329 331 334 331 331 331 330 331 330 330 329 328 330 330 330 330 331 331 331 332 332 333 333 334 334 334 335 334 335 335 336 336 336 337 337 336 336 336 336 335 334 334 334 334 333 333 332 331 331 330 329 329 329 329 328 328 328 327 327 327 327 326 326 326 326 325 325 325 325 325 324 324 324 324 324 324 323
318 316 317 317 315 317 319 315 314 315 313 312 313 315 318 315 315 312 310 319 327 327 329 329 329 329 329 330 329 329 329 328 328 328 329 330 330 331 331 331 331 332 332 333 333 333 334 333 333 334 335 335 336 336 336 336 336 336 336 335 335 334 334 334 334 334 333 332 332 331 331 330 329 329 329 328 328 328 327 327 327 327 327 326 326 325 325 326 325 325 324 324 324 324 324 324 323
320 314 313 315 316 314 315 315 314 314 313 313 313 314 316 315 314 312 310 315 323 325 325 325 326 326 326 327 328 328 328 328 327 327 329 329 330 331 331 331 331 331 332 332 332 332 332 332 332 333 334 334 335 335 336 336 336 336 336 336 335 335 334 334 334 334 334 333 333 332 332 331 330 329 329 329 328 328 328 327 327 327 327 327 326 326 325 326 325 324 324 324 323 324 324 323 324
320 314 312 314 315 314 315 316 314 313 313 314 315 314 314 315 313 313 311 311 318 322 319 319 321 322 322 323 325 326 326 327 326 326 328 329 330 330 330 331 331 331 331 331 332 332 331 331 332 332 333 333 333 335 335 336 336 336 336 336 336 335 334 334 334 334 334 334 333 333 332 331 331 330 329 329 329 329 328 327 326 326 326 326 326 326 326 326 325 325 325 324 323 323 324 324 324
316 313 313 314 315 314 314 317 316 313 313 314 315 314 313 314 313 313 312 310 312 315 312 313 315 316 318 318 319 321 323 325 324 323 326 328 329 330 330 331 331 331 331 331 332 332 332 332 332 332 333 333 333 334 335 335 336 336 336 335 335 335 335 334 334 334 334 334 333 333 333 331 331 330 330 330 329 329 328 327 326 326 325 325 326 326 326 325 325 324 324 325 324 324 324 324 323
312 311 311 311 313 313 313 316 316 312 313 315 314 314 313 313 314 313 311 310 311 311 311 311 311 312 314 316 316 317 319 320 320 321 323 325 328 329 330 330 331 331 331 332 332 332 332 332 332 333 333 333 333 334 334 335 335 335 335 335 335 335 334 334 334 334 333 333 333 333 333 332 331 330 331 331 330 329 329 328 328 327 327 325 326 327 326 325 325 325 325 325 324 324 324 323 323
311 311 310 310 311 311 311 313 315 313 312 314 314 313 313 312 313 312 311 311 312 312 312 312 311 310 310 313 315 315 315 315 316 319 320 322 325 328 329 330 331 331 331 332 332 332 332 332 332 332 333 333 333 334 334 334 334 334 334 334 334 334 334 334 334 334 334 333 333 333 333 333 331 330 330 330 331 331 330 329 329 328 327 327 327 328 327 326 326 326 326 325 324 324 324 323 324
313 313 312 311 311 312 312 313 315 313 312 316 315 312 313 312 312 311 311 313 313 311 311 311 311 310 309 310 312 313 313 314 315 317 318 320 323 326 328 329 330 331 331 331 332 332 332 332 332 332 332 333 333 333 333 334 334 334 334 334 334 334 333 334 334 333 333 334 333 333 333 333 332 330 329 329 330 330 330 330 330 328 326 326 327 327 327 326 326 326 325 326 325 324 324 324 324
315 315 312 311 312 313 314 313 313 312 312 315 315 314 315 313 312 313 312 312 313 312 311 311 311 311 310 310 310 310 312 313 314 316 316 317 321 324 326 328 329 329 330 331 331 332 332 332 332 332 332 333 333 333 333 333 333 333 334 334 333 333 333 333 333 333 333 333 333 333 333 333 333 331 330 330 330 330 330 330 330 328 326 326 327 328 327 326 326 326 326 327 326 324 323 323 324
316 315 312 311 311 312 314 313 313 312 312 312 313 316 316 315 315 314 313 311 311 311 312 312 312 312 311 310 310 311 311 311 313 315 315 314 317 322 325 327 328 329 329 330 331 331 331 332 332 333 333 333 333 333 333 333 333 333 333 333 333 333 333 333 333 333 333 333 333 332 332 332 331 331 331 331 330 330 331 330 329 328 326 326 328 328 327 325 325 326 327 327 326 324 324 324 324
315 314 312 310 310 310 312 314 313 313 316 315 314 315 320 324 321 316 314 312 311 311 311 312 312 311 311 310 311 311 310 310 311 313 313 312 314 319 323 325 326 328 329 329 330 331 331 331 332 333 333 333 333 333 333 333 333 333 333 333 332 332 333 333 333 332 332 332 331 330 330 330 330 330 330 330 330 330 330 330 329 329 328 328 329 329 327 326 326 326 326 327 326 325 325 324 324
315 315 314 311 311 312 313 314 314 316 320 316 312 315 322 324 321 319 315 313 313 312 312 312 311 310 311 310 310 310 310 310 310 311 310 310 311 315 320 324 326 327 328 329 330 330 331 331 332 332 332 333 333 333 333 333 333 333 333 333 332 332 332 331 331 331 332 331 329 328 329 329 330 330 330 329 330 330 330 329 329 329 328 328 329 329 329 328 328 327 327 326 326 326 325 324 324
314 315 315 314 314 315 315 314 315 318 318 314 311 314 318 317 317 318 314 311 313 312 311 312 310 310 311 310 310 310 310 310 310 311 311 309 308 312 317 321 325 327 327 329 329 329 330 331 331 332 332 333 333 333 333 333 333 333 333 332 332 332 331 331 331 331 331 331 329 329 329 330 330 330 330 330 330 329 330 330 328 327 326 328 329 329 328 328 327 327 326 325 324 325 324 323 323
315 316 317 317 317 317 316 315 316 316 314 316 316 314 315 319 322 320 314 312 314 314 312 312 311 310 311 310 310 310 310 310 310 311 310 308 306 309 314 319 323 326 327 328 329 329 330 330 331 332 332 332 332 332 332 332 332 332 333 332 332 332 331 331 331 330 330 330 329 329 329 329 329 330 330 330 330 330 330 329 328 327 327 326 326 326 326 326 325 325 324 323 323 323 323 322 321
315 319 321 321 324 323 318 316 315 312 313 317 319 315 313 321 328 322 314 312 315 315 313 312 312 311 310 310 311 310 310 310 310 310 307 305 307 309 311 315 319 323 326 327 328 329 330 330 331 331 331 332 332 332 332 332 332 332 332 332 332 331 331 331 331 330 330 329 329 329 329 329 329 329 330 330 330 331 330 329 328 328 327 324 323 324 325 324 324 323 323 323 321 321 322 321 321
316 319 318 319 327 326 321 323 318 312 315 317 320 319 312 317 326 320 314 315 316 315 313 312 312 312 310 310 310 309 310 311 311 311 306 303 306 308 309 312 317 320 324 326 327 328 329 329 330 330 331 331 332 332 332 332 332 332 332 332 332 331 331 331 331 330 329 329 328 329 329 329 329 329 330 329 329 329 329 328 328 327 325 324 324 323 323 322 322 322 322 322 321 321 321 320 320
316 319 318 317 324 324 322 326 319 313 318 318 319 318 312 314 320 317 315 316 315 314 314 314 314 315 314 314 313 310 310 310 311 313 310 306 306 307 308 310 314 319 321 324 326 327 327 328 329 330 330 330 331 331 331 331 331 332 332 331 331 331 331 331 331 330 329 328 328 329 329 329 328 328 327 326 326 326 326 326 326 325 324 324 323 321 320 319 319 320 320 320 320 320 320 319 319
314 317 318 318 322 322 321 323 318 317 318 313 313 314 312 313 315 315 316 313 313 313 312 314 315 316 315 315 315 313 311 310 311 313 312 311 309 306 306 309 312 316 320 322 324 325 326 327 328 329 329 330 331 331 331 331 331 331 331 331 331 331 331 331 331 330 329 328 328 328 328 327 326 325 325 324 324 324 324 324 324 324 323 321 319 318 317 316 316 317 318 318 318 318 318 317 316
312 314 317 318 319 320 319 319 318 319 318 312 310 312 314 316 315 316 315 311 313 313 311 312 312 311 311 311 314 316 315 313 312 313 314 315 311 305 306 308 310 314 317 320 322 324 325 326 327 328 328 329 330 330 331 331 331 331 331 331 332 331 331 331 331 330 329 329 328 328 327 326 325 324 323 323 323 323 323 323 322 321 319 317 316 314 313 313 314 314 315 315 316 315 315 314 314
312 315 317 317 320 322 321 321 320 321 321 315 310 312 320 321 316 316 314 312 315 313 312 314 313 310 310 311 317 324 324 319 315 315 317 313 307 305 307 307 309 312 314 317 320 322 324 325 326 327 327 328 329 329 330 331 331 331 331 332 331 332 331 331 331 330 330 329 328 327 326 325 324 323 323 322 322 322 321 321 320 319 316 315 316 315 313 312 312 312 313 313 313 313 312 312 311
315 317 316 316 319 321 320 320 319 317 318 316 311 315 323 320 314 313 312 313 315 314 314 316 317 317 316 317 322 329 330 324 319 318 320 314 305 305 307 307 308 310 312 314 317 319 322 323 325 326 326 327 328 329 330 330 331 331 331 331 331 331 331 331 331 330 329 328 327 326 325 323 323 322 322 321 321 320 319 318 318 317 316 315 316 316 314 312 310 310 311 311 311 311 310 310 310
315 315 315 315 316 316 316 317 315 312 313 316 314 315 319 317 313 316 317 315 314 314 315 316 320 322 321 321 321 323 325 323 320 321 321 314 306 305 308 308 309 309 310 312 313 315 318 320 322 324 324 326 326 328 329 329 330 331 331 331 331 331 331 330 330 329 328 327 325 325 323 323 322 321 321 320 319 317 315 315 316 316 316 315 314 314 312 311 309 309 308 308 310 310 309 308 308
315 315 315 314 313 317 319 317 315 312 313 318 318 315 317 317 315 319 321 316 313 314 314 315 319 322 324 325 321 319 321 322 321 320 317 310 304 305 308 308 309 310 310 310 310 311 313 315 318 320 322 324 325 326 327 328 329 330 330 330 330 330 329 329 329 328 327 325 324 323 322 322 321 320 319 317 315 313 312 314 315 315 315 314 313 313 312 310 310 310 308 307 308 308 307 307 307
313 316 316 315 315 317 317 316 316 314 312 318 321 315 313 316 319 320 316 314 317 315 314 315 316 319 325 326 323 320 320 321 322 321 321 314 306 306 309 310 310 310 310 310 310 310 310 311 314 317 320 322 323 325 326 327 328 329 329 329 328 328 328 327 327 325 325 324 323 322 322 321 320 318 316 313 312 312 313 314 314 313 312 312 311 311 310 310 310 310 309 307 306 306 306 305 305
313 313 312 315 317 316 316 316 318 318 313 317 321 318 317 320 321 319 313 312 315 312 313 317 316 316 320 321 321 320 320 323 324 323 325 319 307 307 310 310 311 311 310 311 310 310 310 310 311 314 318 321 323 324 325 327 327 327 327 327 326 326 326 325 325 324 324 323 322 322 320 318 316 314 312 312 313 314 314 313 311 310 310 310 309 309 309 309 308 308 308 307 306 305 303 301 301
314 314 313 312 313 315 317 316 318 319 317 317 317 317 326 328 319 316 314 313 313 312 312 316 316 315 314 315 316 317 319 324 324 321 323 316 306 307 311 310 311 312 311 311 311 310 310 310 310 312 316 320 322 324 325 326 326 325 325 325 324 324 324 324 323 323 322 322 321 320 318 315 313 312 312 313 314 313 312 310 309 308 308 308 308 308 308 307 307 307 307 306 304 301 298 297 295
314 316 315 312 312 315 316 315 317 317 316 319 317 313 323 330 320 314 313 311 313 314 313 314 315 312 310 310 311 313 317 321 319 317 319 313 305 307 310 310 312 312 312 313 312 311 311 310 310 311 314 318 321 322 323 324 324 324 324 323 323 323 322 322 322 321 321 321 320 318 315 313 312 312 313 313 313 311 309 308 307 307 307 307 307 307 306 306 305 305 303 301 299 296 295 294 293
Wind_Speed
6 5 4 2 2 1 2 5 2 3 3 2 2 1 2 3 2 2 2 0 2 2 2 3 4 5 4 5 7 6 3 3 4 4 2 4 17 22 16 16 17 15 15 14 15 17 15 13 11 10 12 15 16 15 13 13 14 13 12 14 16 17 16 14 15 17 16 17 18 18 17 17 18 18 18 18 18 19 19 19 19 18 18 18 18 19 18 18 18 18 17 17 17 17 17 18 18
6 4 3 2 2 2 1 3 3 3 5 2 3 2 2 2 2 4 5 2 3 3 2 7 8 8 7 7 7 4 3 2 3 3 2 11 21 18 16 18 17 16 15 14 15 18 17 14 11 11 14 15 16 15 13 14 14 14 13 13 14 15 16 14 14 15 16 17 17 17 16 17 17 17 18 18 18 18 18 18 18 18 18 18 19 19 18 18 18 17 17 17 16 16 17 17 17
5 3 2 1 2 4 1 4 2 1 4 1 4 3 1 1 5 6 6 5 7 7 5 6 6 6 6 5 3 3 1 2 3 3 5 18 18 15 20 19 17 16 15 15 15 19 19 15 11 12 15 16 16 14 14 15 14 15 14 13 13 15 15 14 13 13 14 15 15 16 16 16 16 17 17 17 17 18 18 18 18 18 18 18 18 18 18 18 17 17 17 17 16 15 17 17 17
5 4 3 1 1 4 3 4 2 3 1 2 3 4 1 4 7 5 5 7 8 6 3 3 4 2 4 5 1 2 2 1 3 3 7 17 16 19 23 20 19 17 16 15 15 19 19 17 13 12 14 16 17 15 14 14 14 14 14 14 14 15 15 14 14 14 14 14 15 15 15 16 16 16 16 17 17 17 17 18 18 18 18 18 18 17 17 17 16 16 16 16 16 15 16 17 17
4 5 4 2 2 2 3 3 2 3 2 3 1 4 4 6 6 6 5 3 3 3 3 3 3 2 3 4 1 2 2 4 4 4 9 15 19 24 24 21 20 17 17 15 16 18 18 18 15 13 13 15 17 18 16 14 14 13 14 14 14 14 14 14 14 14 15 15 14 15 14 15 15 16 16 16 16 17 16 16 17 17 17 18 18 17 17 16 15 15 16 16 15 16 16 17 16
3 5 7 6 3 1 3 1 0 1 4 5 3 5 5 6 7 7 4 2 4 3 3 3 4 2 3 1 1 4 3 4 6 8 13 17 21 25 24 22 20 18 17 15 16 16 17 18 16 13 13 15 16 18 17 15 13 13 13 13 12 13 13 13 12 12 14 14 14 14 14 15 15 15 15 16 16 16 16 16 16 16 17 17 17 17 16 16 15 15 15 16 15 15 15 15 15
3 2 5 6 2 2 4 1 3 3 4 5 4 5 7 7 6 7 5 3 2 1 1 3 5 7 3 1 2 2 3 6 8 11 16 20 25 25 24 22 21 19 17 16 16 16 17 18 17 14 13 15 17 17 18 15 13 13 13 13 13 13 13 11 12 13 14 14 14 14 15 15 14 14 15 15 15 15 15 15 16 16 16 16 16 16 16 15 15 15 15 15 15 15 15 15 15
4 1 1 4 2 3 4 1 3 3 3 4 4 6 10 8 6 8 6 3 2 0 2 3 4 7 1 1 3 1 3 7 8 14 19 23 27 25 24 23 21 20 17 17 16 16 18 18 18 16 14 16 17 18 17 15 13 13 13 13 14 14 12 10 11 13 14 15 14 14 14 14 13 13 13 14 14 14 15 15 16 15 15 16 16 15 15 15 14 14 14 14 14 15 16 16 17
6 3 0 4 2 2 3 2 4 3 3 4 4 5 7 7 6 6 6 2 1 4 3 4 2 4 2 3 2 2 4 9 12 17 21 25 27 25 24 22 21 20 18 17 17 17 17 18 19 17 15 16 17 17 17 15 14 13 13 13 14 14 12 11 12 13 13 13 13 14 13 13 13 13 13 13 13 14 14 14 14 14 14 15 15 14 13 14 13 13 13 13 14 15 15 16 16
5 4 1 2 3 1 3 2 3 2 4 4 3 4 5 5 4 3 4 4 4 5 3 2 4 5 5 3 1 1 5 15 18 21 24 25 26 25 24 22 21 20 20 18 17 17 17 18 19 17 16 16 16 16 16 15 14 13 13 13 14 14 13 12 13 12 12 12 13 14 13 13 13 13 13 13 13 13 13 13 13 14 14 13 14 13 13 13 13 13 14 13 13 14 13 13 14
3 4 2 4 3 1 2 3 4 4 5 2 1 2 4 4 4 1 2 4 2 4 3 1 5 5 5 1 2 1 9 20 23 26 26 25 25 25 24 22 20 19 20 19 17 16 17 18 19 18 16 16 15 15 15 13 13 13 14 14 14 14 14 13 13 12 12 13 14 14 13 13 12 12 12 12 12 13 13 13 13 13 13 13 13 13 13 13 13 14 14 13 13 13 12 12 11
2 3 4 4 2 3 3 3 5 5 6 1 2 3 4 4 4 3 5 6 3 4 4 2 4 5 5 1 2 1 11 22 25 28 27 26 26 25 23 22 20 18 19 18 17 16 16 18 19 18 16 16 15 14 14 13 12 13 15 15 14 14 15 14 13 13 12 14 15 15 14 13 12 12 12 13 12 12 12 12 13 13 12 13 12 13 13 13 14 14 14 13 13 11 10 10 10
3 1 4 3 3 3 3 2 4 3 4 2 4 2 5 5 3 6 6 5 5 5 4 5 7 5 3 1 2 1 11 21 25 29 28 27 26 25 23 21 21 19 18 18 18 17 17 18 19 19 17 15 15 14 14 14 12 12 15 15 14 15 16 15 14 14 13 14 16 15 15 14 13 13 14 14 13 13 12 13 13 12 12 12 12 12 12 14 15 14 13 13 11 10 9 9 9
2 3 4 2 1 3 4 1 3 1 3 5 3 2 5 3 3 6 7 6 5 4 2 6 9 6 2 1 1 2 11 20 25 30 29 27 25 25 23 22 22 21 19 18 18 17 17 17 18 18 18 16 14 13 13 13 12 12 15 16 15 15 16 16 15 15 13 13 15 14 14 12 12 13 14 14 14 14 13 14 13 13 12 11 11 11 12 15 15 14 13 12 11 9 8 7 7
1 2 4 3 1 0 3 1 2 4 4 4 3 4 4 2 4 6 5 8 5 4 3 5 5 2 3 6 4 7 16 23 26 30 30 27 26 25 24 23 22 22 21 19 18 18 18 17 18 18 18 17 14 13 12 12 11 11 14 16 15 14 16 16 15 14 12 13 14 14 12 11 11 11 11 12 13 13 12 13 13 13 12 11 11 11 13 14 14 13 12 11 10 9 7 6 6
3 3 4 3 1 2 3 2 2 3 5 4 2 5 6 3 3 5 5 5 4 1 2 3 3 0 6 8 7 16 24 25 27 29 30 26 25 25 24 24 24 23 22 21 20 19 18 18 17 17 17 16 15 14 13 12 11 11 12 14 14 14 15 16 15 13 12 13 13 13 11 11 10 9 10 11 12 11 10 11 11 12 11 10 10 10 13 13 12 12 11 10 9 9 7 5 5
2 4 3 1 2 3 3 4 4 3 5 4 3 5 8 3 0 2 2 4 5 2 2 1 1 2 7 4 6 25 27 25 29 29 28 26 24 23 22 22 23 23 23 22 21 20 19 19 18 17 17 16 16 15 14 13 12 11 11 12 13 13 14 15 15 13 12 13 13 13 11 11 10 9 9 10 11 9 8 8 8 10 10 10 9 10 13 12 11 10 10 9 9 8 7 5 4
3 3 2 1 3 4 4 7 6 4 4 5 5 6 9 5 3 2 2 5 4 2 3 3 3 3 3 4 9 28 27 28 31 28 27 25 24 23 21 21 21 22 24 24 23 21 21 20 19 18 17 17 16 16 15 14 13 12 12 12 13 13 14 14 15 13 12 13 13 12 11 10 10 9 9 9 9 8 7 7 6 7 8 9 9 10 11 11 10 9 9 8 9 8 8 6 4
2 3 2 3 5 4 5 6 6 4 4 5 6 6 8 8 7 4 3 2 1 4 2 4 3 3 1 4 18 28 27 29 29 28 27 26 27 25 23 22 21 22 24 25 25 23 22 21 20 19 18 18 17 16 15 15 14 13 13 13 13 13 13 14 14 13 13 13 13 12 11 10 9 9 9 8 8 7 7 7 6 6 7 7 8 9 10 10 9 8 8 8 8 9 8 7 4
1 3 1 5 5 4 4 5 6 5 4 5 6 4 5 6 6 4 5 6 5 6 5 2 3 3 3 9 21 25 25 27 26 27 26 26 28 27 27 26 24 24 26 28 26 25 23 21 21 20 19 18 18 17 16 16 15 14 13 13 13 13 13 12 12 12 13 13 12 12 11 10 9 9 8 8 7 7 7 6 6 6 7 7 8 8 8 8 8 8 8 8 8 8 9 7 5
1 2 3 5 2 3 6 6 6 5 4 5 4 4 4 5 3 4 7 7 6 8 8 8 9 9 8 10 17 23 23 22 23 25 25 25 26 27 28 28 26 25 27 28 27 26 24 22 22 21 20 19 19 18 17 16 16 15 14 14 13 13 13 12 11 11 12 13 13 12 11 10 9 8 7 7 6 7 7 6 6 6 6 7 8 8 7 8 8 8 7 7 7 7 8 8 6
1 2 4 4 1 3 6 3 3 3 4 5 6 6 5 4 1 5 11 10 7 7 9 9 10 13 14 15 18 21 20 20 21 23 25 25 26 26 26 26 25 24 26 27 27 28 25 24 22 21 21 20 20 19 18 17 17 16 15 15 14 13 13 12 12 11 12 13 13 12 11 11 9 8 6 5 5 5 5 6 6 6 6 6 7 7 8 8 7 7 6 5 5 6 7 7 6
1 3 3 4 3 4 6 2 2 1 5 6 8 5 5 6 3 5 11 11 4 3 7 9 9 15 20 21 20 18 18 19 21 24 27 27 27 27 26 26 25 25 27 28 29 28 26 25 23 23 22 21 21 19 19 18 18 17 16 16 15 14 14 13 13 12 12 13 12 12 12 11 10 8 6 5 4 4 4 5 6 6 6 6 7 7 7 7 7 6 5 4 4 4 5 5 6
4 2 5 6 3 5 7 4 4 3 7 6 5 4 6 9 5 3 8 10 2 6 4 10 10 14 18 18 17 18 20 23 24 26 28 30 30 30 29 29 28 29 29 30 29 29 27 26 25 24 24 23 22 21 20 20 19 18 17 16 16 15 14 14 13 13 13 13 12 12 11 11 10 9 8 6 5 5 5 5 5 6 6 6 7 8 8 8 7 6 5 5 4 5 4 5 5
4 1 5 7 6 7 8 5 4 2 5 1 4 5 6 6 3 3 9 10 3 3 5 10 10 12 13 14 15 16 19 22 24 24 25 27 29 29 29 29 29 29 30 31 30 29 28 26 25 25 25 24 23 22 21 21 20 19 18 18 17 16 16 15 14 14 14 14 13 13 12 11 10 10 9 7 6 6 6 6 6 5 5 6 6 7 7 7 7 7 6 7 7 8 8 7 7
1 2 6 8 10 11 9 5 3 2 2 4 5 4 1 1 1 3 9 8 2 3 7 9 10 10 11 11 13 15 15 19 23 23 24 25 26 27 27 28 28 29 31 32 31 30 29 27 26 26 25 25 24 23 23 22 21 21 20 19 18 17 17 16 15 15 15 15 15 14 12 12 11 11 9 8 8 7 7 8 7 5 5 6 6 5 6 6 6 7 8 8 9 10 10 9 9
2 6 8 10 11 10 5 5 4 2 0 5 7 4 1 2 1 4 7 5 6 7 7 8 10 11 11 10 11 15 16 20 25 24 22 22 25 27 28 29 29 30 31 31 32 31 29 29 28 26 25 25 24 25 24 23 22 22 22 20 19 18 18 17 17 17 17 17 16 15 14 13 12 11 10 9 10 9 8 9 9 8 7 7 7 6 6 6 6 7 8 9 9 10 11 11 11
4 8 11 12 9 7 5 5 5 0 1 4 7 3 2 3 1 7 6 3 8 9 9 8 10 10 11 11 10 12 16 20 24 22 23 25 27 29 29 31 31 31 32 32 32 31 31 30 29 28 27 26 25 25 25 24 23 23 22 21 20 19 18 18 18 18 18 18 17 16 16 14 13 11 10 10 11 11 10 9 9 9 8 7 8 8 8 8 8 9 10 10 10 11 11 12 12
4 7 9 13 9 6 7 4 4 2 2 3 6 1 3 3 7 8 3 3 6 8 9 9 9 9 8 10 8 10 14 17 19 21 26 29 29 30 31 33 33 33 33 33 32 32 32 31 30 29 28 28 27 26 26 25 24 23 23 23 22 20 19 18 19 18 18 18 17 17 16 15 14 12 11 11 12 12 11 10 10 9 9 8 9 9 10 10 10 11 11 12 12 13 13 13 13
4 4 2 8 8 6 6 2 2 3 3 2 5 2 5 9 13 7 2 4 8 7 8 8 8 7 7 8 7 9 12 15 18 24 28 29 30 31 32 33 33 34 34 34 34 34 34 33 32 31 30 30 29 28 27 26 25 24 24 23 23 22 21 20 19 19 17 17 17 16 16 15 14 13 12 12 13 13 13 12 12 10 9 9 10 10 11 11 12 13 13 13 14 14 14 14 15
3 3 1 2 3 5 7 2 4 5 2 2 5 4 7 10 12 6 4 6 8 8 7 7 7 6 6 7 8 8 11 17 22 26 28 29 30 31 32 33 33 34 34 35 36 36 35 35 34 33 32 32 31 31 29 28 27 26 25 25 24 24 22 22 21 20 19 17 17 17 16 16 15 15 14 14 13 14 15 14 13 12 11 11 11 11 11 12 13 14 14 14 14 14 15 15 16
3 1 3 2 2 5 8 3 6 5 1 3 6 4 7 9 10 6 5 7 8 9 8 8 8 8 8 7 8 8 9 16 21 23 26 27 29 30 32 34 34 35 35 36 36 36 36 36 36 35 34 34 33 33 31 30 29 28 27 26 25 25 24 23 22 21 20 19 19 18 18 17 17 17 16 15 15 15 15 15 14 13 13 13 13 13 12 13 13 13 14 15 15 15 16 17 18
1 3 3 4 2 4 5 3 4 3 1 1 3 3 4 6 6 5 3 8 8 8 8 9 9 9 9 7 8 8 7 10 15 20 25 27 29 31 32 34 35 36 36 36 36 36 36 36 36 36 36 36 34 34 33 32 31 30 29 27 27 26 25 25 24 23 22 21 21 20 19 19 18 18 17 17 16 15 15 16 15 14 13 14 14 15 15 14 13 15 17 16 16 17 18 19 18
3 3 2 5 4 3 4 4 3 1 2 3 4 4 7 7 5 4 2 8 8 9 10 9 9 8 8 7 7 8 8 9 12 20 27 29 31 32 33 33 34 35 36 36 36 37 37 36 36 36 36 36 35 35 34 33 32 31 30 29 28 27 27 26 25 25 24 23 23 22 21 20 20 19 19 19 17 17 16 15 15 14 14 14 15 16 17 17 15 18 19 16 16 19 20 20 19
6 4 3 4 5 4 4 5 3 4 2 4 6 6 11 12 9 5 3 6 8 11 9 7 8 8 8 7 7 8 9 10 14 23 29 31 32 33 33 33 33 34 35 36 37 36 36 36 37 37 37 37 36 36 34 34 33 32 31 30 29 29 29 27 26 26 26 25 24 23 22 20 20 20 20 20 19 19 17 15 15 15 15 15 15 16 17 18 18 19 20 18 19 21 20 20 20
8 5 3 3 4 5 5 5 5 5 4 5 8 8 12 14 13 8 3 5 7 8 6 4 7 7 7 7 7 9 10 12 19 25 27 29 32 33 33 33 33 33 34 35 36 36 36 37 37 38 39 38 37 36 35 35 34 33 33 31 32 31 30 29 28 28 27 26 25 24 22 21 20 20 21 21 21 20 19 18 17 16 14 15 16 18 17 19 19 19 20 21 22 22 21 19 20
5 3 2 4 4 5 5 4 5 2 4 7 8 9 12 13 14 9 4 5 6 7 8 8 8 7 8 9 9 11 11 14 17 19 23 26 30 32 32 32 32 32 33 35 36 37 38 38 38 39 40 39 39 38 37 37 36 34 33 33 34 33 31 30 29 29 28 27 26 25 24 23 22 21 21 22 22 22 20 20 20 18 16 16 18 19 19 20 20 20 20 21 21 21 21 19 19
2 2 2 5 4 5 7 4 4 2 3 5 4 7 12 12 13 7 5 5 7 10 11 12 11 9 8 9 11 12 10 10 9 12 20 24 27 29 31 31 31 32 34 35 37 39 40 39 39 39 39 40 40 40 39 38 38 36 35 34 33 32 31 31 31 30 29 28 26 26 25 24 23 22 21 21 22 22 21 21 21 18 18 20 21 20 20 20 20 20 20 22 22 22 22 20 20
2 1 2 4 3 4 7 4 2 0 3 4 1 5 10 12 12 8 5 6 8 9 12 12 11 9 8 10 12 11 9 10 9 10 17 22 26 29 30 31 33 35 35 36 37 38 39 39 39 38 38 40 40 41 41 39 39 38 36 34 32 31 30 31 31 30 29 28 28 27 26 25 24 23 21 20 21 21 22 23 22 18 16 17 19 19 19 19 19 20 21 24 24 23 22 21 20
3 2 2 4 3 1 4 3 2 0 1 1 1 3 7 8 9 8 7 9 8 7 9 9 8 8 11 11 9 9 11 12 11 10 13 18 23 26 29 31 33 34 34 35 37 38 39 39 39 39 39 40 41 41 41 40 38 36 35 33 30 29 29 28 28 28 29 28 28 27 26 26 25 24 22 20 20 20 21 22 21 20 16 16 18 20 20 20 21 22 23 25 25 24 22 21 20
5 6 5 4 4 3 4 3 4 3 2 1 2 3 6 6 7 9 6 6 7 8 7 8 8 9 11 8 7 9 11 12 12 11 12 14 20 26 30 32 32 33 35 37 38 38 38 39 39 40 40 40 41 41 41 39 36 33 32 30 27 26 27 26 26 27 28 28 28 28 27 26 24 23 22 21 20 19 20 19 19 20 18 18 20 20 19 20 21 23 24 26 26 25 23 21 20
6 8 8 7 6 5 6 5 3 3 4 2 1 2 6 5 5 9 7 4 7 8 8 10 10 9 9 8 9 11 11 11 11 11 11 13 19 24 27 30 31 33 36 38 39 39 38 38 39 40 40 40 41 40 40 39 37 34 32 29 27 25 26 27 28 28 27 27 27 27 25 24 23 22 21 20 19 19 18 18 21 22 20 21 20 18 21 22 23 24 26 26 24 22 22 21 22
5 6 8 8 5 5 7 5 1 2 5 4 2 4 6 6 4 8 6 5 9 8 8 10 10 9 9 9 11 12 11 10 10 10 10 12 18 20 23 29 32 35 37 38 37 38 38 39 39 40 40 41 41 40 40 39 38 36 34 33 31 29 28 29 29 28 27 27 25 24 24 23 22 21 20 19 18 18 18 18 20 20 19 20 19 20 24 26 26 25 25 24 20 18 19 21 24
2 4 8 6 3 4 6 4 4 4 3 4 2 2 4 5 6 6 3 4 9 9 9 10 9 9 10 12 13 13 13 11 10 11 11 13 18 22 25 31 35 37 37 36 37 38 39 39 39 40 40 41 40 39 39 39 38 37 36 34 33 33 32 31 29 27 26 25 23 22 21 21 21 20 20 19 18 18 18 18 19 18 17 16 17 19 21 20 19 19 19 18 16 16 18 21 23
3 4 5 3 2 1 2 3 5 3 2 5 4 2 3 6 6 4 2 3 9 10 10 11 11 12 12 14 14 14 14 12 11 11 12 14 20 26 30 32 35 37 36 36 38 38 39 39 38 39 40 40 40 39 39 38 38 38 36 35 34 33 33 30 28 26 24 23 22 20 19 19 19 19 19 19 19 19 17 16 18 17 15 15 13 13 13 11 12 12 12 11 10 11 13 16 18
3 4 5 4 4 3 3 2 3 2 2 8 6 4 4 5 5 3 2 3 7 9 9 10 11 12 12 13 14 14 11 9 9 10 12 16 22 27 29 29 31 34 35 36 37 37 37 37 37 38 38 39 39 38 38 38 38 37 36 35 34 33 31 28 26 25 24 22 20 19 17 17 17 17 18 17 17 16 15 15 16 14 13 14 13 11 11 11 12 11 11 11 11 10 10 10 12
3 5 5 5 3 4 4 1 1 1 6 8 7 4 4 5 5 4 4 5 7 8 8 8 9 9 9 10 11 11 9 7 8 8 10 16 21 22 22 24 27 29 30 32 33 34 35 36 37 37 37 38 38 38 37 37 37 37 37 36 35 34 31 28 27 26 25 22 20 18 16 16 16 16 16 16 16 15 14 14 14 13 12 11 11 12 13 13 14 13 12 12 12 11 9 8 9
5 3 4 4 0 2 3 2 1 4 7 5 4 2 4 6 5 4 6 6 6 7 8 9 9 8 8 8 8 9 8 7 8 8 9 12 14 16 19 21 23 24 26 29 31 32 33 34 35 36 36 36 36 37 37 36 36 37 37 36 36 34 32 30 29 29 27 23 20 18 17 16 16 16 16 15 14 14 14 13 13 14 13 13 14 16 17 16 16 15 14 12 10 9 7 6 6
6 3 4 4 2 0 2 3 2 5 6 3 1 1 4 7 6 7 9 9 9 9 9 10 9 8 9 8 8 7 6 7 8 8 9 8 9 13 17 20 22 24 26 29 30 31 32 33 34 35 36 36 36 36 36 36 36 37 36 36 35 34 32 31 30 29 27 23 21 20 19 18 17 16 15 13 13 12 13 14 13 14 15 16 16 14 13 12 11 10 10 9 7 6 5 4 4
7 5 5 5 4 3 6 5 2 5 5 2 1 1 3 4 5 10 14 13 11 8 9 10 9 10 11 9 7 7 6 7 7 7 7 7 8 13 17 20 22 25 27 29 30 31 32 32 33 35 35 35 35 35 35 36 36 36 36 35 34 33 32 31 30 29 26 23 22 21 20 19 18 16 14 13 13 12 13 14 15 15 15 12 9 7 6 5 5 5 5 5 5 4 5 6 6
7 5 4 4 5 4 5 4 3 4 4 3 2 1 4 3 3 9 11 10 9 6 7 8 8 9 9 8 8 7 6 6 5 6 6 7 8 12 16 18 21 23 25 27 29 30 31 32 33 34 34 33 34 34 34 35 35 34 34 33 33 32 31 31 30 28 25 24 23 21 20 18 16 15 14 13 13 13 14 14 14 13 11 7 6 6 5 4 5 5 4 4 3 3 4 4 4
5 4 4 5 5 4 2 2 3 2 2 4 3 3 5 4 6 8 5 6 8 7 8 7 7 7 5 6 8 7 6 5 4 5 5 6 8 10 12 15 18 20 23 25 27 29 30 31 32 33 33 32 32 32 33 33 33 32 32 31 31 31 31 30 29 27 25 24 22 21 19 17 16 15 14 14 14 13 13 13 12 11 9 9 9 9 8 7 5 3 5 5 3 2 2 2 1
3 3 5 4 3 5 3 2 1 2 3 4 1 3 5 4 7 8 5 7 9 8 8 7 7 6 5 6 7 6 6 5 4 5 5 5 6 9 11 13 15 17 20 23 25 27 29 30 30 30 30 29 30 30 30 30 30 30 30 30 30 30 30 29 27 26 24 22 21 20 18 17 16 15 15 15 15 14 12 11 10 9 9 10 10 10 10 7 2 1 3 4 4 2 2 2 2
5 6 6 3 2 2 2 2 1 1 6 5 1 3 5 3 5 7 8 7 9 9 8 7 7 6 6 7 7 6 6 5 5 5 5 5 7 9 11 13 14 15 17 19 21 23 24 26 27 27 28 28 28 28 28 28 28 29 29 30 30 29 28 27 25 24 24 22 21 19 18 17 16 16 16 16 15 13 11 10 9 8 9 10 10 10 8 5 3 3 3 5 5 4 3 3 3
4 6 6 5 3 3 2 3 4 4 5 5 3 3 3 4 4 6 8 7 8 10 8 6 7 7 7 8 8 7 6 5 5 5 5 5 6 9 10 12 13 14 15 16 17 19 21 22 23 24 25 25 26 26 26 27 27 28 29 29 28 27 25 25 24 24 23 22 21 20 19 18 17 17 16 14 12 11 10 10 10 10 10 10 9 9 7 5 5 4 4 4 3 3 3 3 2
3 2 3 2 3 4 3 3 3 3 3 3 4 4 4 6 6 6 10 11 10 10 7 6 8 8 7 8 7 7 6 6 6 6 5 5 6 8 9 11 12 13 15 15 16 18 19 20 20 21 22 22 24 25 26 27 27 28 27 27 26 25 25 24 24 23 23 22 22 21 20 19 18 16 14 13 12 11 11 10 10 10 10 9 8 7 6 5 5 5 5 4 2 3 4 5 4
2 3 4 3 2 1 1 2 2 2 3 3 3 4 5 6 5 9 13 13 9 5 4 7 8 7 8 8 7 6 6 6 6 5 5 5 6 6 7 9 10 11 13 14 16 17 18 19 20 21 22 23 25 26 27 27 27 26 26 26 25 25 24 24 24 23 23 22 22 21 19 18 17 15 14 13 13 12 11 11 10 10 9 9 8 7 6 6 6 6 5 5 5 6 8 8 8
5 5 6 7 5 3 3 5 1 1 3 4 2 6 8 5 4 7 11 11 6 3 4 7 8 8 8 7 7 7 6 6 5 5 5 4 5 6 6 8 9 10 12 13 15 16 18 20 21 22 23 24 26 27 27 27 26 26 26 26 26 25 25 25 24 24 23 22 21 20 19 19 17 16 15 14 13 13 12 12 11 10 10 9 9 9 8 7 7 8 8 8 8 9 9 9 9
Wind_Direction
17 36 41 44 345 318 13 55 66 328 70 70 310 143 220 201 184 159 142 250 41 357 333 70 76 78 102 122 144 148 116 145 167 139 198 199 148 153 158 154 155 150 143 140 145 139 134 135 136 140 136 133 123 113 114 116 111 107 99 96 99 100 99 96 94 94 95 93 94 93 89 92 91 89 88 87 86 85 85 85 86 87 88 90 90 87 85 82 79 79 82 84 83 82 79 77 76
21 49 39 57 28 27 276 63 89 334 44 32 294 160 256 313 133 180 193 180 126 158 121 96 88 75 78 96 117 109 47 15 156 142 122 146 145 153 159 158 155 147 143 143 144 141 136 130 130 134 137 134 121 115 116 116 114 113 107 94 93 98 101 101 95 93 94 91 90 91 89 90 91 91 89 87 86 85 85 85 85 86 88 92 93 89 85 84 81 82 85 87 85 84 81 79 79
23 61 40 139 45 39 77 39 78 58 49 341 282 248 292 131 171 205 209 160 142 155 140 99 81 74 75 70 58 83 78 352 114 118 123 145 147 156 162 159 153 145 141 143 145 142 135 127 127 132 137 133 120 120 121 117 115 115 114 105 100 97 99 101 97 95 95 92 91 94 94 91 93 93 90 88 87 87 87 87 87 87 89 94 96 92 87 85 84 84 86 87 87 84 82 81 80
26 54 40 165 69 29 63 39 119 117 43 243 260 273 267 181 189 203 189 150 150 154 148 90 61 16 87 101 65 80 135 70 119 129 139 158 159 158 163 158 150 145 142 144 147 146 140 135 134 134 139 136 127 127 124 121 119 117 116 112 110 104 101 101 97 96 96 97 96 98 99 95 96 96 93 93 92 92 91 91 92 91 92 95 99 96 91 89 87 87 88 89 90 87 85 83 80
38 57 37 74 89 36 90 63 105 98 235 193 188 268 249 199 177 171 173 169 195 200 219 115 91 306 76 108 123 115 144 115 152 163 145 165 163 157 162 156 150 145 144 146 148 152 149 145 141 136 143 144 136 133 128 124 123 120 119 117 118 113 107 107 103 99 101 102 100 103 104 100 99 99 99 99 98 97 96 95 96 97 96 98 101 100 96 94 91 92 94 93 93 90 87 84 82
66 74 44 60 91 106 111 39 132 216 237 171 169 248 227 201 173 159 159 245 251 229 223 116 123 139 77 21 79 135 156 124 160 171 157 164 161 158 161 155 150 147 146 148 149 152 151 149 146 137 144 150 140 135 131 127 126 123 123 120 122 120 112 116 118 110 107 108 108 107 104 101 101 100 98 98 99 99 99 99 100 99 98 101 103 101 98 96 93 92 92 93 93 91 87 84 83
100 94 31 62 63 23 101 158 201 238 245 173 184 199 189 203 177 146 144 187 206 316 23 106 129 109 82 335 87 132 149 142 160 172 169 163 160 160 159 155 151 148 148 150 149 149 151 151 149 141 143 149 143 139 135 129 129 126 126 122 123 124 120 123 123 117 112 112 111 105 101 102 102 99 95 96 97 97 98 99 98 97 97 102 103 101 97 96 96 93 91 90 90 89 87 86 86
75 72 3 82 48 22 87 198 233 220 231 208 221 188 179 192 170 147 158 167 159 345 64 133 112 90 57 36 108 250 124 148 166 171 169 161 161 161 160 158 152 149 150 151 148 149 153 152 148 143 143 149 147 145 139 132 132 131 129 126 126 126 126 128 121 117 112 111 110 104 103 104 102 100 100 101 100 99 100 100 99 99 100 104 106 104 99 98 98 95 92 89 88 89 88 88 89
55 33 61 81 92 33 38 311 281 234 253 266 244 204 175 172 165 147 147 133 148 147 143 181 113 99 173 55 105 280 98 151 164 163 163 160 163 162 162 161 155 151 152 152 149 151 154 154 149 143 143 150 152 149 144 136 135 135 133 132 131 129 126 121 115 114 110 111 114 112 110 110 107 104 105 105 103 103 103 102 101 101 102 105 109 107 103 101 99 98 93 90 91 91 89 89 90
41 23 143 76 100 30 336 292 289 258 265 265 227 210 167 159 166 149 132 145 151 135 163 172 79 109 144 99 150 335 121 154 158 158 160 161 164 165 164 163 159 154 153 154 151 152 154 157 153 146 144 148 155 155 150 145 144 140 136 136 135 134 131 123 117 116 113 113 117 118 117 115 111 107 106 106 106 106 106 105 104 105 104 107 112 111 108 103 100 102 98 94 96 95 93 92 92
34 356 102 75 80 115 261 246 281 273 285 294 236 236 164 147 130 106 95 129 123 125 175 85 82 122 110 91 229 51 148 157 159 161 161 164 167 167 166 164 164 159 155 154 153 153 153 158 157 153 151 151 154 158 158 153 150 144 140 139 137 138 137 132 127 124 123 123 122 123 122 119 115 112 111 110 110 111 112 111 110 109 107 109 114 116 117 112 109 110 106 101 101 99 97 93 89
87 336 64 89 140 186 207 221 278 287 314 329 184 247 155 126 120 159 145 139 140 133 200 181 134 137 86 1 250 94 153 162 165 164 164 167 170 169 166 164 166 163 158 155 155 154 154 159 161 160 158 155 153 157 160 156 154 149 145 142 141 143 139 137 134 133 136 136 133 130 127 125 123 118 114 111 110 112 114 114 114 113 112 112 115 120 123 121 119 119 115 110 106 102 98 93 89
119 129 89 131 181 162 165 194 281 312 325 266 195 222 133 132 184 189 153 126 145 144 228 197 141 110 90 234 256 132 163 168 167 166 168 170 172 171 168 166 167 166 162 160 158 156 158 160 162 165 164 160 158 159 161 161 161 157 151 148 148 148 145 145 144 146 151 147 145 142 138 136 133 128 125 121 119 120 118 116 114 113 114 116 118 123 127 128 127 126 123 117 112 107 102 98 93
113 151 115 159 145 131 156 165 280 203 257 254 204 164 138 171 199 178 141 125 179 191 203 168 141 111 94 205 257 224 178 172 168 168 170 172 175 174 172 170 169 169 166 166 163 160 162 162 164 168 170 169 168 166 166 169 168 163 157 156 157 155 153 154 154 157 158 153 152 153 150 144 140 138 136 135 135 132 128 125 121 120 121 123 126 129 134 134 133 131 130 125 119 116 108 101 94
111 134 90 119 56 104 178 200 203 166 230 227 168 153 148 253 145 156 170 150 204 247 134 134 149 138 162 169 199 208 180 172 169 169 172 174 178 176 176 173 172 172 170 170 167 165 165 166 167 168 173 174 174 171 169 175 176 169 164 165 164 158 157 159 161 161 157 156 159 160 158 152 147 144 142 145 144 138 135 134 133 131 129 130 133 135 137 137 136 135 133 130 127 126 118 102 91
112 104 63 103 148 248 208 191 120 133 241 219 164 139 142 286 132 156 235 150 142 228 107 154 178 131 167 175 202 186 173 168 168 170 172 173 175 175 177 175 176 176 173 174 172 171 169 170 173 171 174 176 176 173 169 171 175 175 169 171 169 162 163 165 167 166 160 163 166 166 166 161 159 154 149 149 146 142 138 138 138 135 131 131 131 134 138 140 141 140 138 136 134 134 128 112 93
78 81 62 81 178 214 201 177 167 171 230 230 236 154 147 261 257 152 303 86 115 133 0 231 226 38 171 222 197 170 165 164 166 168 169 169 170 171 173 175 176 177 176 177 177 176 174 174 176 176 176 177 178 174 171 167 167 172 169 171 173 171 170 171 174 174 168 168 170 172 173 171 171 166 156 151 149 147 143 139 136 133 133 133 132 136 142 146 148 148 146 144 144 144 141 132 112
48 79 109 206 191 198 187 180 192 181 195 203 210 176 155 179 187 161 69 59 60 87 353 320 334 1 197 255 159 160 160 161 164 164 164 165 168 169 171 176 178 179 180 181 181 180 180 178 179 181 180 180 180 177 175 170 168 169 167 168 172 176 177 178 181 180 176 172 172 175 176 177 176 171 165 160 157 153 149 141 130 127 131 134 136 140 145 151 155 156 155 152 152 153 153 150 136
89 118 137 226 203 212 201 176 184 189 196 188 196 187 175 183 168 153 151 173 149 136 304 330 338 356 37 159 148 153 157 159 163 163 164 167 170 172 174 178 182 183 184 184 184 184 185 183 182 184 185 184 184 182 178 176 174 173 171 170 171 175 178 180 183 185 185 180 177 176 175 176 173 171 169 168 167 163 156 148 140 133 133 138 143 146 149 155 158 158 156 153 157 159 162 162 153
130 124 185 247 216 245 249 192 205 209 168 166 198 190 192 198 156 153 164 174 201 188 201 195 208 222 133 156 151 150 156 160 165 165 167 171 174 178 178 181 184 185 188 188 186 187 188 188 187 187 188 188 188 186 183 181 179 180 179 176 175 175 176 179 182 187 190 188 185 181 178 176 173 172 173 175 177 177 172 165 161 154 146 148 153 156 155 156 156 156 153 149 151 160 167 171 168
334 144 190 247 203 260 262 215 231 230 170 169 175 140 186 213 155 153 145 151 231 231 212 194 185 179 162 167 159 155 158 162 169 170 171 175 179 182 184 187 187 187 189 189 190 190 190 192 193 191 191 193 193 192 189 186 185 185 185 183 182 180 179 179 180 184 188 190 188 185 183 179 175 175 176 179 182 188 189 185 180 177 169 163 163 166 166 163 161 161 161 156 152 158 169 177 182
358 246 212 248 218 259 272 231 242 231 161 138 142 164 178 169 163 170 159 174 223 225 210 201 178 167 165 168 166 163 164 168 173 174 176 178 182 184 187 190 189 191 191 191 192 193 194 194 197 196 195 197 198 198 195 193 191 190 190 189 188 186 185 184 182 182 183 184 184 184 182 179 178 179 182 182 187 196 203 204 200 197 192 186 182 180 179 178 177 178 178 177 171 167 171 181 192
88 292 291 277 240 244 282 324 298 196 139 157 170 187 143 137 211 188 180 198 229 271 200 183 178 170 165 163 166 170 172 176 180 180 180 181 184 185 187 189 190 193 193 194 194 195 196 196 200 201 199 200 202 203 202 200 198 197 195 194 194 192 190 191 191 189 187 186 185 187 186 185 187 189 195 200 209 216 220 225 223 218 216 213 206 199 197 198 198 199 205 211 211 204 195 193 200
110 262 319 322 281 245 268 307 307 202 175 199 165 139 149 174 205 154 202 221 295 329 181 152 162 162 160 162 170 179 180 183 185 185 185 185 187 188 189 191 193 194 194 196 195 195 197 197 200 203 204 205 205 206 207 207 205 203 201 201 202 199 198 200 201 199 197 198 198 198 198 200 202 203 207 215 232 242 238 239 234 229 229 225 215 210 211 213 217 223 232 245 259 260 248 235 230
82 280 323 332 309 283 282 299 327 238 198 183 115 155 182 186 169 150 220 232 288 355 126 132 143 152 163 172 178 183 185 188 188 187 188 189 190 190 193 194 194 195 196 197 197 197 197 197 199 203 206 207 208 208 209 211 210 209 207 208 208 207 208 207 206 206 206 208 209 209 209 211 215 215 216 224 243 255 252 241 237 232 227 224 216 215 219 223 234 245 253 261 269 273 272 266 258
48 346 325 321 307 299 296 291 331 346 201 134 150 194 200 130 115 238 233 220 189 108 126 136 144 158 176 181 184 186 189 192 190 189 190 191 192 193 196 197 197 197 199 200 200 200 199 198 200 204 207 209 210 210 210 212 213 213 212 213 214 214 216 213 210 211 213 215 218 219 218 218 222 224 224 233 246 258 260 246 242 240 228 229 231 228 231 236 248 261 269 276 279 279 278 276 272
357 357 325 310 299 289 290 281 284 351 212 165 173 200 284 324 332 250 250 183 138 121 134 153 156 170 182 185 192 190 193 196 194 191 189 191 195 197 198 199 200 200 201 202 203 204 202 201 203 206 209 211 212 213 214 213 215 217 217 217 218 219 218 215 214 215 216 219 223 226 227 226 227 232 235 242 251 256 259 252 248 251 245 243 250 254 255 262 275 283 287 289 290 287 282 279 279
9 2 328 310 308 287 270 271 266 202 133 169 148 160 291 342 272 234 249 161 140 138 152 169 173 180 185 188 193 194 201 201 196 193 192 196 199 200 201 201 202 202 203 204 206 207 206 205 206 208 211 213 214 216 217 216 218 220 220 221 221 222 219 216 216 216 217 220 223 228 232 234 233 239 246 251 256 256 258 258 257 262 264 264 269 273 272 277 288 295 296 296 298 296 290 285 284
18 16 332 308 325 300 259 247 254 181 172 175 134 138 288 246 231 236 243 155 132 138 166 179 186 189 189 192 194 199 205 202 199 201 203 204 203 203 204 205 204 204 206 207 208 209 210 210 209 210 213 215 217 218 219 220 221 222 223 224 224 224 220 219 219 218 219 220 223 228 233 237 238 244 252 259 260 255 256 258 262 270 278 278 278 281 281 282 287 291 294 295 298 299 297 294 290
10 18 334 302 329 304 260 234 220 179 169 170 144 220 262 235 236 235 174 150 126 140 184 188 192 194 192 197 200 206 204 200 203 209 210 209 208 209 210 210 208 208 209 209 210 211 212 212 212 213 214 217 220 221 223 223 223 224 225 226 226 226 225 225 225 225 226 224 226 230 233 238 242 245 251 259 260 257 255 256 261 268 279 283 282 284 284 285 286 289 291 292 297 298 299 299 295
20 335 301 291 307 282 287 295 163 171 189 110 126 213 253 245 248 243 183 164 150 171 195 196 200 197 197 202 205 212 207 205 211 213 213 212 212 213 213 213 212 212 212 211 212 213 213 214 215 215 215 218 221 223 225 225 226 226 227 228 228 228 230 231 231 231 232 232 232 234 237 240 244 247 250 254 258 258 257 258 260 263 271 276 277 281 285 289 290 289 289 290 295 299 299 300 299
49 292 289 305 213 268 301 292 174 176 232 100 127 209 263 259 259 257 199 169 169 188 197 200 204 202 202 205 209 216 216 215 219 220 219 218 217 216 217 216 215 214 215 215 215 215 215 216 217 217 218 219 221 224 226 227 228 229 230 231 231 232 232 234 235 235 236 237 237 239 241 244 245 246 246 250 255 258 259 261 262 264 267 270 273 275 278 285 288 291 294 290 291 298 301 299 297
67 160 249 286 256 274 303 288 224 191 118 135 167 216 265 265 270 296 209 177 178 196 207 207 207 210 208 206 212 216 222 222 225 225 223 222 221 220 220 218 217 216 217 217 216 216 217 218 218 218 220 221 223 224 226 228 229 229 231 233 233 234 234 236 237 237 238 238 239 242 244 245 246 247 246 247 252 256 259 261 264 264 264 264 266 267 272 276 279 287 293 291 289 290 291 292 296
203 149 215 264 248 243 276 282 263 174 123 206 209 225 245 256 279 321 229 186 181 201 214 211 210 216 214 212 216 219 221 223 224 223 222 221 222 222 222 222 220 219 218 218 218 218 219 218 218 219 221 223 224 225 226 228 229 230 232 234 234 235 236 237 237 237 238 238 241 243 244 246 247 247 247 248 251 255 258 262 265 267 267 265 261 260 264 263 263 274 282 289 291 285 281 285 294
164 158 181 252 244 226 247 269 226 163 157 206 197 229 249 259 273 274 218 190 191 210 217 216 218 219 220 218 218 222 225 229 228 223 221 220 220 221 222 222 222 220 220 219 219 220 221 220 219 220 221 223 224 225 226 227 227 228 230 232 233 234 235 235 235 236 237 239 241 243 244 245 247 248 249 250 252 255 256 262 269 274 275 274 267 262 263 261 262 271 277 281 282 279 277 283 292
143 161 185 225 243 241 237 253 249 184 167 212 199 218 242 250 258 249 196 182 201 234 254 240 230 224 225 224 223 226 225 233 233 227 224 221 220 221 220 221 221 221 221 220 220 220 221 221 220 220 221 222 223 222 223 223 223 224 226 227 229 230 232 233 235 236 237 240 242 244 243 243 246 249 252 253 253 253 255 261 269 273 276 281 276 269 266 266 269 274 280 281 278 277 277 280 287
134 135 226 250 247 268 259 253 295 260 178 224 207 215 238 242 252 246 167 164 201 239 252 238 231 224 223 223 225 227 225 235 237 231 228 224 222 221 219 219 219 220 221 220 220 219 221 221 220 220 221 221 221 220 220 219 218 218 220 223 226 229 230 231 233 235 237 239 241 243 243 244 246 247 251 254 255 253 253 260 264 264 267 273 274 272 269 266 267 270 277 281 279 277 276 277 283
112 107 280 280 245 261 267 242 310 330 193 246 217 219 246 247 255 251 143 170 210 216 225 231 226 220 223 226 228 230 232 243 241 230 229 225 223 221 219 218 217 218 219 219 220 220 221 221 220 220 220 219 220 221 221 220 220 220 221 224 226 229 230 231 233 236 238 239 240 241 242 245 246 248 249 251 253 254 254 258 260 263 268 269 271 275 274 270 269 270 271 272 273 270 271 275 280
133 113 285 281 251 275 278 255 286 15 188 269 237 212 252 255 255 248 174 200 233 219 218 228 225 220 225 226 230 232 237 246 237 228 228 222 219 218 217 217 217 218 219 219 220 221 221 220 220 221 220 219 220 222 222 222 224 225 226 228 230 231 233 235 237 240 242 242 242 243 244 245 247 253 254 251 252 252 254 254 255 260 263 267 271 270 271 271 270 269 266 265 267 267 268 271 273
176 168 229 258 261 274 280 297 329 338 162 253 173 215 262 265 266 262 213 211 243 237 225 233 226 221 227 229 234 231 230 238 235 231 229 221 217 215 214 215 216 217 218 219 219 219 220 219 220 220 220 221 221 222 223 224 225 226 227 230 232 234 236 238 239 241 242 242 243 244 246 247 248 253 256 255 254 253 255 256 257 260 259 262 267 264 265 269 267 266 267 266 264 262 263 268 272
206 203 205 235 258 241 252 306 336 325 340 112 99 323 283 258 259 267 241 213 245 250 237 244 236 227 235 243 251 236 228 233 232 230 227 217 214 214 214 215 215 215 216 218 219 219 219 219 219 220 220 221 221 222 223 223 223 222 222 223 227 230 233 235 236 238 239 240 242 244 245 248 250 252 253 255 257 256 257 256 255 258 256 257 263 265 268 272 270 269 269 266 263 260 263 270 275
219 217 205 224 253 267 276 303 347 328 301 256 166 275 275 283 265 255 250 223 240 242 232 238 237 234 238 242 245 238 234 235 230 232 227 217 218 216 215 215 214 215 217 218 220 220 219 219 220 220 220 221 222 222 222 221 220 219 217 216 217 220 224 229 231 234 236 239 243 244 245 247 249 252 254 255 257 257 256 256 255 255 255 256 260 265 266 265 266 267 268 266 265 267 267 269 273
223 201 183 214 257 292 282 278 244 241 271 277 203 207 257 306 275 244 251 248 247 244 238 243 242 238 235 232 238 237 235 235 231 235 230 221 220 217 216 215 214 216 219 219 219 220 220 220 220 220 220 221 222 222 221 220 219 219 219 219 219 219 222 228 232 235 239 244 247 248 247 248 248 250 253 253 255 256 256 256 257 256 258 261 262 265 266 265 265 268 272 270 267 270 267 264 269
211 155 157 194 248 290 277 239 215 234 270 295 281 188 248 276 255 253 292 274 267 265 254 255 248 239 237 235 236 236 232 228 223 228 226 220 217 214 216 217 216 218 219 218 218 219 220 220 220 221 221 222 222 222 221 220 219 219 220 221 222 224 227 231 235 238 242 245 247 248 248 249 248 249 250 251 253 255 254 255 258 258 257 259 262 268 274 276 275 277 278 273 269 271 271 267 269
230 175 158 163 153 216 295 229 239 278 317 274 264 167 226 261 270 307 356 248 262 266 252 251 247 237 236 237 237 236 233 226 219 222 223 221 217 215 218 219 219 219 218 217 219 219 220 220 220 221 222 222 222 222 222 222 222 221 221 221 223 226 230 233 236 239 241 243 245 246 247 247 246 246 247 250 251 249 248 253 256 254 255 264 268 271 277 279 281 285 283 282 284 287 287 281 276
225 144 114 71 86 79 51 197 242 321 256 244 236 197 220 261 274 294 324 241 246 259 256 248 245 240 237 239 241 241 238 228 221 224 226 225 222 221 221 221 221 220 218 218 219 219 219 219 219 220 221 222 222 222 222 222 222 221 221 222 224 226 228 230 233 237 239 241 241 242 245 244 241 241 241 241 243 241 240 246 247 246 255 264 260 258 266 272 277 284 285 288 295 301 304 298 289
140 109 104 82 62 42 43 74 92 269 251 244 233 212 212 260 270 227 220 222 214 231 253 254 251 253 250 248 253 252 247 235 225 230 235 233 232 229 225 224 222 220 219 218 218 218 218 218 218 219 221 222 222 221 222 222 221 221 222 224 225 226 226 226 229 232 234 234 235 237 239 236 232 232 232 232 233 233 234 239 242 245 248 249 249 256 269 275 276 279 284 285 286 291 296 296 293
151 126 130 130 148 5 10 354 57 219 248 255 239 198 184 235 259 229 237 248 225 220 237 251 254 260 259 252 256 258 250 235 222 225 232 232 233 229 223 222 220 218 217 216 216 217 217 217 218 218 220 221 221 221 221 221 221 222 223 224 226 227 227 227 229 232 232 229 230 231 227 223 222 223 226 228 228 230 231 229 230 236 242 252 262 265 269 273 273 273 277 280 279 279 280 284 294
179 170 147 149 175 122 222 248 227 228 254 284 244 179 202 236 251 256 263 265 251 231 226 243 253 262 268 262 259 264 254 234 222 221 224 222 223 219 215 215 213 212 213 214 214 214 216 217 217 217 219 220 220 220 220 220 221 222 223 224 225 227 228 230 233 233 232 230 229 226 220 218 218 219 221 222 222 226 229 230 234 241 248 255 261 262 262 264 268 269 270 272 275 276 279 299 318
188 180 164 165 160 166 204 219 255 252 260 280 254 243 259 272 260 243 245 253 254 235 224 239 249 258 269 273 276 276 263 241 228 228 226 222 221 216 213 212 210 210 212 212 212 213 214 215 216 218 219 220 219 219 219 219 220 221 222 224 225 227 228 230 233 234 233 231 228 225 222 221 220 218 218 218 220 225 230 234 241 246 248 249 254 263 262 245 244 258 266 266 267 274 283 298 315
193 170 144 176 175 172 195 199 222 245 271 276 261 221 213 210 257 240 233 258 278 258 237 246 253 259 267 278 282 274 261 247 235 234 231 229 224 217 214 213 212 212 211 211 211 211 212 213 216 217 218 218 218 218 218 218 219 220 221 223 225 226 228 230 232 233 233 230 225 222 220 219 217 215 217 220 223 229 234 237 236 234 231 227 233 255 273 265 243 230 226 236 244 257 263 271 293
198 148 149 202 191 160 167 193 189 193 290 269 236 232 215 207 280 280 264 281 283 267 259 260 261 269 277 275 270 261 256 250 238 237 237 240 231 218 215 213 212 213 211 211 211 211 211 213 215 217 218 218 217 216 217 217 218 218 219 221 222 223 225 227 228 229 229 226 221 217 214 211 212 215 218 222 226 228 227 226 223 219 215 215 220 232 251 266 266 219 201 203 203 236 226 185 232
159 163 193 209 165 153 185 262 39 66 262 260 208 257 289 320 292 297 326 303 283 275 272 266 270 291 297 273 267 266 265 256 246 243 242 252 243 227 221 215 213 212 210 211 212 212 213 213 214 215 216 216 216 215 215 215 215 216 217 218 219 220 221 222 223 222 219 214 211 210 209 209 213 217 218 221 223 218 210 208 213 214 214 215 219 230 243 252 259 176 172 169 163 188 182 147 159
153 191 195 131 92 138 145 242 296 233 244 269 352 251 287 309 279 314 339 304 279 277 275 273 280 289 276 260 255 256 261 262 265 259 253 260 253 239 230 223 221 218 216 215 213 213 213 213 214 213 213 213 213 213 212 212 212 212 213 213 214 215 216 216 216 213 207 203 203 205 208 211 214 217 220 220 215 206 202 208 217 217 217 220 223 230 238 233 203 184 155 151 158 167 172 180 189
162 185 176 140 173 201 149 194 216 212 238 275 314 287 271 216 229 300 306 282 269 272 279 283 273 261 255 257 252 251 258 266 269 261 254 253 248 244 237 230 228 226 224 221 215 213 211 211 212 212 213 212 210 208 208 208 209 209 209 208 207 208 207 207 205 202 201 202 203 206 209 211 213 215 215 209 202 200 206 215 221 219 217 218 218 215 214 201 187 186 168 159 161 162 166 176 167
43 118 169 163 182 195 181 180 183 194 230 267 304 308 272 225 210 227 254 261 260 262 273 278 266 254 250 253 249 247 247 247 248 245 245 243 238 240 235 232 232 229 228 223 217 214 210 209 208 206 207 206 203 202 201 201 201 202 201 199 199 199 199 199 198 198 200 201 204 209 211 209 207 205 201 197 200 209 215 218 218 214 207 201 197 190 183 173 164 166 168 161 138 103 99 102 100
129 145 175 190 180 152 197 205 159 158 197 218 283 287 261 243 211 198 221 242 249 249 261 266 266 261 255 253 248 246 242 241 242 237 237 239 236 231 226 227 228 226 225 222 219 217 211 208 205 201 200 197 195 196 195 196 194 193 193 191 191 192 192 194 195 197 199 201 205 210 207 200 197 195 196 201 208 213 215 214 205 198 192 183 175 167 158 152 144 140 138 132 118 104 98 98 93
174 177 185 187 175 150 200 232 208 96 201 190 216 269 261 246 215 208 222 240 253 253 253 267 277 274 270 265 252 243 242 246 248 242 239 236 226 216 208 211 212 212 214 214 215 213 209 206 203 200 198 195 194 192 191 191 189 188 189 188 187 189 190 193 194 195 199 201 204 204 197 193 194 196 200 207 212 211 206 199 190 181 174 165 157 152 144 135 130 129 127 122 116 110 105 101 95